CW3508 Weather Reports


Display with metric or nautical units.
time (UTC)temp
F
wind
direction
speed
MPH
gust
MPH
rain 1hr
in
rain 24hr
in
rain mn
in
humidity
%
barometer
mb
20260505204538 77 140 2.0 6.0 0.00 0.00 0.00 60 1009.1
20260505204035 77 157 2.0 6.0 0.00 0.00 0.00 61 1009.1
20260505203522 77 298 2.0 5.0 0.00 0.00 0.00 63 1009.1
20260505203026 77 284 1.0 7.0 0.00 0.00 0.00 61 1009.1
20260505202519 77 87 3.0 7.0 0.00 0.00 0.00 61 1009.2
20260505202030 77 140 1.0 6.0 0.00 0.00 0.00 62 1009.2
20260505201533 77 147 2.0 6.0 0.00 0.00 0.00 61 1009.2
20260505201033 77 274 1.0 5.0 0.00 0.00 0.00 61 1009.7
20260505200518 77 161 2.0 6.0 0.00 0.00 0.00 62 1009.7
20260505200028 77 157 1.0 6.0 0.00 0.00 0.00 61 1009.7
20260505195519 77 150 2.0 5.0 0.00 0.00 0.00 62 1009.8
20260505195034 77 148 1.0 5.0 0.00 0.00 0.00 61 1009.8
20260505194537 77 153 2.0 6.0 0.00 0.00 0.00 61 1009.8
20260505194039 77 122 1.0 4.0 0.00 0.00 0.00 61 1010.0
20260505193526 77 296 1.0 3.0 0.00 0.00 0.00 63 1010.0
20260505193035 77 128 1.0 7.0 0.00 0.00 0.00 61 1010.0
20260505192534 77 198 4.0 7.0 0.00 0.00 0.00 61 1009.9
20260505192022 77 340 2.0 5.0 0.00 0.00 0.00 62 1009.9
20260505191540 77 271 1.0 4.0 0.00 0.00 0.00 62 1009.9
20260505191043 77 169 1.0 5.0 0.00 0.00 0.00 61 1010.2
20260505190531 77 181 1.0 6.0 0.00 0.00 0.00 60 1010.2
20260505185522 78 142 1.0 4.0 0.00 0.00 0.00 61 1010.4
20260505185027 77 285 1.0 7.0 0.00 0.00 0.00 62 1010.4
20260505184557 77 240 3.0 7.0 0.00 0.00 0.00 61 1010.4
20260505184021 77 313 2.0 6.0 0.00 0.00 0.00 62 1010.7
20260505183553 77 172 2.0 6.0 0.00 0.00 0.00 61 1010.7
20260505183038 76 298 1.0 5.0 0.00 0.00 0.00 63 1010.7
20260505182527 76 173 3.0 7.0 0.00 0.00 0.00 63 1010.8
20260505182029 76 147 1.0 7.0 0.00 0.00 0.00 63 1010.8
20260505181534 75 170 1.0 4.0 0.00 0.00 0.00 65 1010.8
20260505180533 76 155 2.0 6.0 0.00 0.00 0.00 62 1010.8
20260505180035 76 179 2.0 8.0 0.00 0.00 0.00 62 1010.8
20260505175521 76 137 1.0 3.0 0.00 0.00 0.00 63 1011.2
20260505175035 76 137 1.0 4.0 0.00 0.00 0.00 64 1011.2
20260505174543 76 107 1.0 6.0 0.00 0.00 0.00 63 1011.2
20260505174043 76 132 2.0 7.0 0.00 0.00 0.00 63 1011.3
20260505173017 77 185 2.0 6.0 0.00 0.00 0.00 60 1011.3
20260505172516 77 285 2.0 5.0 0.00 0.00 0.00 63 1011.3
20260505172017 76 281 1.0 4.0 0.00 0.00 0.00 63 1011.3
20260505171534 76 228 0.0 7.0 0.00 0.00 0.00 62 1011.3
20260505171035 76 173 3.0 7.0 0.00 0.00 0.00 62 1011.6
20260505170518 75 161 2.0 7.0 0.00 0.00 0.00 63 1011.6
20260505170034 75 178 2.0 7.0 0.00 0.00 0.00 64 1011.6
20260505165532 75 158 2.0 5.0 0.00 0.00 0.00 63 1011.8
20260505165030 75 175 2.0 5.0 0.00 0.00 0.00 63 1011.8
20260505164529 75 182 2.0 5.0 0.00 0.00 0.00 63 1011.8
20260505164046 75 163 2.0 6.0 0.00 0.00 0.00 65 1011.8
20260505163529 75 142 1.0 6.0 0.00 0.00 0.00 66 1011.8
20260505163033 75 169 1.0 11.0 0.00 0.00 0.00 64 1011.8
20260505162517 74 148 2.0 11.0 0.00 0.00 0.00 66 1011.7
20260505162030 74 148 2.0 6.0 0.00 0.00 0.00 65 1011.7
20260505161532 73 209 2.0 7.0 0.00 0.00 0.00 67 1011.7
20260505161018 73 156 3.0 7.0 0.00 0.00 0.00 69 1011.7
20260505160517 72 166 1.0 8.0 0.00 0.00 0.00 68 1011.7
20260505153029 70 155 1.0 6.0 0.00 0.00 0.00 72 1011.8
20260505152532 70 162 2.0 6.0 0.00 0.00 0.00 72 1011.9
20260505151550 69 177 2.0 5.0 0.00 0.00 0.00 74 1011.9
20260505151036 68 177 0.0 5.0 0.00 0.00 0.00 74 1011.9
20260505150543 68 163 1.0 5.0 0.00 0.00 0.00 74 1011.9
20260505140523 63 164 2.0 5.0 0.00 0.00 0.00 81 1012.0
20260505125036 55 228 0.0 0.0 0.00 0.00 0.00 94 1011.2
20260505124522 55 228 0.0 0.0 0.00 0.00 0.00 93 1011.2
20260505124025 55 228 0.0 0.0 0.00 0.00 0.00 93 1010.8
20260505123537 54 228 0.0 0.0 0.00 0.00 0.00 93 1010.8
20260505123039 54 228 0.0 0.0 0.00 0.00 0.00 93 1010.8
20260505122529 54 228 0.0 0.0 0.00 0.00 0.00 93 1010.8
20260505122016 54 228 0.0 0.0 0.00 0.00 0.00 93 1010.8
20260505121545 54 228 0.0 0.0 0.00 0.00 0.00 93 1010.8
20260505121029 54 228 0.0 0.0 0.00 0.00 0.00 92 1010.7
20260505120536 53 228 0.0 0.0 0.00 0.00 0.00 92 1010.7
20260505120018 53 228 0.0 1.0 0.00 0.00 0.00 92 1010.7
20260505115035 53 228 0.0 0.0 0.00 0.00 0.00 92 1010.4
20260505114535 53 228 0.0 0.0 0.00 0.00 0.00 92 1010.4
20260505114043 53 228 0.0 1.0 0.00 0.00 0.00 91 1010.4
20260505113529 53 228 0.0 1.0 0.00 0.00 0.00 91 1010.4
20260505113058 53 228 0.0 0.0 0.00 0.00 0.00 91 1010.4
20260505112535 53 228 0.0 0.0 0.00 0.00 0.00 91 1010.2
20260505112025 53 228 0.0 0.0 0.00 0.00 0.00 91 1010.2
20260505111527 53 227 0.0 0.0 0.00 0.00 0.00 91 1010.2
20260505111016 54 227 0.0 0.0 0.00 0.00 0.00 90 1010.2
20260505110529 54 227 0.0 0.0 0.00 0.00 0.00 91 1010.2
20260505102040 55 227 0.0 1.0 0.00 0.00 0.00 91 1009.8
20260505101544 55 227 0.0 1.0 0.00 0.00 0.00 91 1009.8
20260505100524 55 227 0.0 1.0 0.00 0.00 0.00 91 1009.8
20260505100024 55 227 0.0 1.0 0.00 0.00 0.00 91 1009.8
20260505095540 55 227 0.0 1.0 0.00 0.00 0.00 91 1010.1
20260505095052 54 227 0.0 1.0 0.00 0.00 0.00 90 1010.1
20260505094534 54 227 0.0 1.0 0.00 0.00 0.00 90 1010.1
20260505094023 54 228 0.0 1.0 0.00 0.00 0.00 90 1010.2
20260505093555 54 153 0.0 1.0 0.00 0.00 0.00 90 1010.2
20260505093015 54 153 0.0 1.0 0.00 0.00 0.00 89 1010.2
20260505092521 55 153 0.0 0.0 0.00 0.00 0.00 89 1010.3
20260505092033 55 153 0.0 0.0 0.00 0.00 0.00 89 1010.3
20260505091537 55 153 0.0 1.0 0.00 0.00 0.00 89 1010.3
20260505091038 55 153 0.0 1.0 0.00 0.00 0.00 88 1010.3
20260505090525 55 153 0.0 1.0 0.00 0.00 0.00 88 1010.3
20260505090057 55 153 0.0 1.0 0.00 0.00 0.00 88 1010.3
20260505085539 55 153 0.0 0.0 0.00 0.00 0.00 87 1010.4
20260505084536 56 153 0.0 1.0 0.00 0.00 0.00 87 1010.4
20260505084018 56 153 0.0 0.0 0.00 0.00 0.00 87 1010.4
20260505083531 56 153 0.0 0.0 0.00 0.00 0.00 87 1010.4
20260505083048 56 153 0.0 0.0 0.00 0.00 0.00 87 1010.4
20260505082517 56 153 0.0 1.0 0.00 0.00 0.00 86 1010.6
20260505082022 56 153 0.0 1.0 0.00 0.00 0.00 86 1010.6
20260505081536 56 153 0.0 1.0 0.00 0.00 0.00 86 1010.6
20260505081042 56 153 0.0 0.0 0.00 0.00 0.00 85 1010.6
20260505080524 56 153 0.0 0.0 0.00 0.00 0.00 85 1010.6
20260505080057 56 153 0.0 0.0 0.00 0.00 0.00 85 1010.6
20260505075521 56 153 0.0 0.0 0.00 0.00 0.00 85 1010.7
20260505075029 56 153 0.0 0.0 0.00 0.00 0.00 85 1010.7
20260505074534 57 153 0.0 1.0 0.00 0.00 0.00 85 1010.7
20260505074051 57 153 0.0 1.0 0.00 0.00 0.00 84 1010.8
20260505073533 57 153 0.0 0.0 0.00 0.00 0.00 85 1010.8
20260505073035 57 153 0.0 0.0 0.00 0.00 0.00 85 1010.8
20260505072521 57 153 0.0 1.0 0.00 0.00 0.00 85 1010.6
20260505072051 57 153 0.0 1.0 0.00 0.00 0.00 85 1010.6
20260505071536 58 153 0.0 1.0 0.00 0.00 0.00 84 1010.6
20260505071045 58 153 0.0 1.0 0.00 0.00 0.00 84 1010.7
20260505070516 58 153 0.0 0.0 0.00 0.00 0.00 83 1010.7
20260505070017 58 153 0.0 0.0 0.00 0.00 0.00 83 1010.7
20260505065536 58 153 0.0 0.0 0.00 0.00 0.00 83 1010.7
20260505065039 58 153 0.0 0.0 0.00 0.00 0.00 83 1010.7
20260505064548 58 153 0.0 0.0 0.00 0.00 0.00 83 1010.7
20260505064021 59 153 0.0 0.0 0.00 0.00 0.00 83 1010.7
20260505063520 59 153 0.0 0.0 0.00 0.00 0.00 82 1010.7
20260505063018 59 153 0.0 0.0 0.00 0.00 0.00 83 1010.7
20260505062535 59 153 0.0 0.0 0.00 0.00 0.00 83 1010.7
20260505062033 58 153 0.0 0.0 0.00 0.00 0.00 84 1010.7
20260505061527 58 153 0.0 1.0 0.00 0.00 0.00 83 1010.7
20260505061027 58 153 0.0 1.0 0.00 0.00 0.00 84 1010.8
20260505060532 58 153 0.0 2.0 0.00 0.00 0.00 84 1010.8
20260505060014 58 153 0.0 2.0 0.00 0.00 0.00 83 1010.8
20260505055536 58 153 0.0 1.0 0.00 0.00 0.00 83 1010.9
20260505055038 58 153 0.0 1.0 0.00 0.00 0.00 83 1010.9
20260505054538 58 153 0.0 1.0 0.00 0.00 0.00 82 1010.9
20260505054025 58 153 0.0 0.0 0.00 0.00 0.00 82 1010.8
20260505053553 58 153 0.0 0.0 0.00 0.00 0.00 82 1010.8
20260505053035 58 153 0.0 0.0 0.00 0.00 0.00 81 1010.8
20260505052529 58 153 0.0 1.0 0.00 0.00 0.00 81 1010.7
20260505052018 58 153 0.0 1.0 0.00 0.00 0.00 81 1010.7
20260505051530 59 153 0.0 1.0 0.00 0.00 0.00 80 1010.7
20260505051015 59 153 0.0 1.0 0.00 0.00 0.00 80 1010.5
20260505050536 59 153 0.0 1.0 0.00 0.00 0.00 80 1010.5
20260505041527 60 153 0.0 1.0 0.00 0.00 0.00 79 1010.4
20260505041037 60 153 0.0 1.0 0.00 0.00 0.00 79 1010.5
20260505040541 61 153 0.0 2.0 0.00 0.00 0.00 78 1010.5
20260505040029 61 153 0.0 1.0 0.00 0.00 0.00 78 1010.5
20260505035531 61 153 0.0 1.0 0.00 0.00 0.00 77 1010.6
20260505035036 61 153 0.0 1.0 0.00 0.00 0.00 77 1010.6
20260505034538 61 153 0.0 1.0 0.00 0.00 0.00 76 1010.6
20260505034023 61 153 0.0 2.0 0.00 0.00 0.00 75 1010.6
20260505033552 61 153 0.0 1.0 0.00 0.00 0.00 75 1010.6
20260505033020 62 153 0.0 0.0 0.00 0.00 0.00 76 1010.6
20260505032519 62 153 0.0 1.0 0.00 0.00 0.00 75 1010.5
20260505032021 62 153 0.0 1.0 0.00 0.00 0.00 75 1010.5
20260505031526 62 153 0.0 1.0 0.00 0.00 0.00 74 1010.5
20260505030518 63 153 0.0 1.0 0.00 0.00 0.00 72 1010.3
20260505030027 63 153 0.0 1.0 0.00 0.00 0.00 73 1010.3
20260505025536 63 153 0.0 1.0 0.00 0.00 0.00 72 1010.6
20260505025022 63 153 0.0 0.0 0.00 0.00 0.00 71 1010.6
20260505024549 63 153 0.0 0.0 0.00 0.00 0.00 70 1010.6
20260505024034 64 153 0.0 0.0 0.00 0.00 0.00 69 1010.4
20260505023519 64 153 0.0 0.0 0.00 0.00 0.00 69 1010.4
20260505023020 64 153 0.0 0.0 0.00 0.00 0.00 69 1010.4
20260505022534 64 153 0.0 0.0 0.00 0.00 0.00 68 1010.3
20260505022019 65 153 0.0 0.0 0.00 0.00 0.00 67 1010.3
20260505021536 65 153 0.0 1.0 0.00 0.00 0.00 67 1010.3
20260505021042 65 153 0.0 1.0 0.00 0.00 0.00 66 1010.2
20260505020546 66 153 0.0 0.0 0.00 0.00 0.00 65 1010.2
20260505020019 66 153 0.0 1.0 0.00 0.00 0.00 64 1010.2
20260505015522 66 153 0.0 1.0 0.00 0.00 0.00 65 1010.2
20260505015024 67 153 0.0 1.0 0.00 0.00 0.00 64 1010.2
20260505014518 67 153 0.0 0.0 0.00 0.00 0.00 62 1010.2
20260505014024 68 153 0.0 0.0 0.00 0.00 0.00 61 1009.9
20260505013532 68 153 0.0 0.0 0.00 0.00 0.00 61 1009.9
20260505013036 69 153 0.0 0.0 0.00 0.00 0.00 62 1009.9
20260505012548 69 153 0.0 1.0 0.00 0.00 0.00 62 1009.8
20260505012034 69 153 0.0 1.0 0.00 0.00 0.00 62 1009.8
20260505011545 69 153 0.0 0.0 0.00 0.00 0.00 62 1009.8
20260505011040 70 153 0.0 1.0 0.00 0.00 0.00 60 1009.7
20260505010544 70 153 0.0 1.0 0.00 0.00 0.00 60 1009.7
20260505010029 70 153 0.0 0.0 0.00 0.00 0.00 60 1009.7
20260505005536 70 153 0.0 1.0 0.00 0.00 0.00 55 1009.7
20260505005052 71 153 0.0 1.0 0.00 0.00 0.00 54 1009.7
20260505004558 71 153 0.0 1.0 0.00 0.00 0.00 54 1009.7
20260505004035 71 153 0.0 1.0 0.00 0.00 0.00 54 1009.7
20260505003521 72 153 0.0 2.0 0.00 0.00 0.00 53 1009.7
20260505003022 72 153 1.0 3.0 0.00 0.00 0.00 54 1009.7
20260505002556 72 153 1.0 3.0 0.00 0.00 0.00 53 1009.6
20260505002019 73 162 1.0 3.0 0.00 0.00 0.00 53 1009.6
20260505001541 73 162 2.0 3.0 0.00 0.00 0.00 51 1009.6
20260505001042 73 164 1.0 2.0 0.00 0.00 0.00 53 1009.7
20260505000544 74 164 1.0 4.0 0.00 0.00 0.00 54 1009.7
20260505000039 74 164 1.0 4.0 0.00 0.00 0.00 52 1009.7
20260504235517 74 150 1.0 3.0 0.00 0.00 0.00 51 1009.7
20260504235034 74 150 0.0 2.0 0.00 0.00 0.00 52 1009.7
20260504234531 75 150 0.0 3.0 0.00 0.00 0.00 51 1009.7
20260504234038 75 150 1.0 7.0 0.00 0.00 0.00 49 1009.7
20260504233517 75 145 2.0 7.0 0.00 0.00 0.00 51 1009.7
20260504233018 76 201 0.0 2.0 0.00 0.00 0.00 49 1009.7
20260504232534 76 201 1.0 2.0 0.00 0.00 0.00 49 1009.7
20260504232042 76 200 1.0 3.0 0.00 0.00 0.00 47 1009.7
20260504231531 76 202 1.0 4.0 0.00 0.00 0.00 46 1009.7
20260504231052 76 120 1.0 4.0 0.00 0.00 0.00 45 1009.8
20260504230521 76 167 2.0 4.0 0.00 0.00 0.00 45 1009.8
20260504230022 76 113 1.0 4.0 0.00 0.00 0.00 47 1009.8
20260504225017 77 198 1.0 3.0 0.00 0.00 0.00 47 1009.8
20260504224524 77 198 1.0 3.0 0.00 0.00 0.00 46 1009.8
20260504224101 77 136 1.0 4.0 0.00 0.00 0.00 45 1009.9
20260504223525 77 156 1.0 5.0 0.00 0.00 0.00 46 1009.9
20260504223036 77 150 1.0 5.0 0.00 0.00 0.00 46 1009.9
20260504222532 77 133 1.0 6.0 0.00 0.00 0.00 44 1010.0
20260504222021 77 153 2.0 6.0 0.00 0.00 0.00 44 1010.0
20260504221531 77 155 1.0 6.0 0.00 0.00 0.00 43 1010.0
20260504221035 77 161 1.0 6.0 0.00 0.00 0.00 45 1010.2
20260504220049 77 132 1.0 3.0 0.00 0.00 0.00 42 1010.2
20260504215533 77 164 1.0 7.0 0.00 0.00 0.00 43 1010.2
20260504215034 78 138 3.0 8.0 0.00 0.00 0.00 43 1010.2
20260504214521 78 150 2.0 8.0 0.00 0.00 0.00 45 1010.2
20260504214021 78 183 3.0 7.0 0.00 0.00 0.00 44 1010.3
20260504213533 78 157 1.0 5.0 0.00 0.00 0.00 44 1010.3
20260504213023 78 146 2.0 5.0 0.00 0.00 0.00 47 1010.3
20260504212555 78 166 2.0 5.0 0.00 0.00 0.00 44 1010.3
20260504212033 78 157 1.0 5.0 0.00 0.00 0.00 44 1010.3
20260504211541 78 55 1.0 5.0 0.00 0.00 0.00 46 1010.3
20260504211031 78 188 1.0 5.0 0.00 0.00 0.00 45 1010.3
20260504210516 78 167 2.0 5.0 0.00 0.00 0.00 46 1010.3
20260504210049 78 252 1.0 6.0 0.00 0.00 0.00 47 1010.3
20260504205042 78 242 1.0 6.0 0.00 0.00 0.00 44 1010.6